Weather History for PAIN - December, 2012

Change the Weather History Date:

Thursday, December 20, 2012

  Actual Average Record
Temperature  
Mean Temperature -27 °F -  
Max Temperature -13 °F 17 °F 44 °F (1969)
Min Temperature -41 °F 0 °F -41 °F (2012)
Degree Days  
Heating Degree Days 92    
Moisture  
Dew Point -30 °F    
Average Humidity 77    
Maximum Humidity 92    
Minimum Humidity 67    
Precipitation  
Precipitation 0.00 in - - ()
Sea Level Pressure  
Sea Level Pressure 30.35 in    
Wind  
Wind Speed 9 mph (NNE)    
Max Wind Speed 17 mph    
Max Gust Speed 25 mph    
Visibility 10 miles    
Events      
Averages and records for this station are not official NWS values.
T = Trace of Precipitation, MM = Missing Value Source: NWS Daily Summary

Daily Weather History Graph

Daily Weather History Graph

Search for Another Location

Airport or City:

Trip Planner

Search our weather history database for the weather conditions in past years. The results will help you decide how hot, cold, wet, or windy it might be!

Date:

Astronomy

Dec. 20, 2012 Rise Set
Actual Time 10:43 AM AKST 3:04 PM AKST
Civil Twilight 9:27 AM AKST 4:20 PM AKST
Nautical Twilight 8:19 AM AKST 5:27 PM AKST
Astronomical Twilight 7:20 AM AKST 6:26 PM AKST
Moon 12:24 PM AKST (12/20) 1:32 AM AKST (12/20)
Length of Visible Light 6h 53m
Length of Day
4h 20m
First Quarter, 56% of the Moon is Illuminated
Dec 20
First Quarter
Dec 28
Full
Jan 4
Last Quarter
Jan 11
New
Jan 18
First Quarter

Hourly Weather History & Observations

Time (AKST) Temp. Windchill Dew Point Humidity Pressure Visibility Wind Dir Wind Speed Gust Speed Precip Events Conditions
12:16 AM -14.8 °F -36.6 °F -16.6 °F 92% 30.24 in 10.0 mi North 12.7 mph 17.3 mph N/A   Clear
12:36 AM -14.8 °F -36.6 °F -16.6 °F 92% 30.25 in 9.0 mi NNE 12.7 mph 18.4 mph N/A   Clear
12:56 AM -13.0 °F -34.3 °F -16.6 °F 84% 30.26 in 10.0 mi North 12.7 mph - N/A   Clear
1:16 AM -13.0 °F -34.3 °F -16.6 °F 84% 30.27 in 10.0 mi North 12.7 mph 19.6 mph N/A   Clear
1:36 AM -13.0 °F -32.4 °F -16.6 °F 84% 30.27 in 9.0 mi North 10.4 mph 20.7 mph N/A   Clear
1:56 AM -13.0 °F -31.3 °F -16.6 °F 84% 30.28 in 10.0 mi North 9.2 mph - N/A   Clear
2:16 AM -13.0 °F -33.4 °F -16.6 °F 84% 30.28 in 10.0 mi North 11.5 mph 16.1 mph N/A   Clear
2:36 AM -13.0 °F -34.3 °F -16.6 °F 84% 30.28 in 10.0 mi North 12.7 mph 19.6 mph N/A   Clear
2:56 AM -13.0 °F -34.3 °F -16.6 °F 84% 30.28 in 10.0 mi North 12.7 mph 16.1 mph N/A   Clear
3:16 AM -13.0 °F -33.4 °F -16.6 °F 84% 30.29 in 10.0 mi North 11.5 mph 16.1 mph N/A   Clear
3:36 AM -13.0 °F -36.8 °F -16.6 °F 84% 30.29 in 9.0 mi North 16.1 mph 21.9 mph N/A   Clear
3:56 AM -13.0 °F -36.8 °F -16.6 °F 84% 30.29 in 10.0 mi NNE 16.1 mph 20.7 mph N/A   Clear
4:16 AM -13.0 °F -36.8 °F -16.6 °F 84% 30.30 in 10.0 mi NNE 16.1 mph - N/A   Clear
4:36 AM -13.0 °F -36.8 °F -16.6 °F 84% 30.29 in 10.0 mi NNE 16.1 mph 21.9 mph N/A   Clear
4:56 AM -14.8 °F -39.1 °F -16.6 °F 92% 30.29 in 10.0 mi NNE 16.1 mph 21.9 mph N/A   Clear
5:16 AM -13.0 °F -36.0 °F -16.6 °F 84% 30.30 in 10.0 mi North 15.0 mph 19.6 mph N/A   Clear
5:36 AM -13.0 °F -34.3 °F -16.6 °F 84% 30.30 in 10.0 mi NNE 12.7 mph 16.1 mph N/A   Clear
5:56 AM -14.8 °F -35.6 °F -18.4 °F 84% 30.30 in 10.0 mi NNE 11.5 mph - N/A   Clear
6:16 AM -14.8 °F -39.8 °F -18.4 °F 84% 30.30 in 10.0 mi NNE 17.3 mph 25.3 mph N/A   Clear
6:36 AM -14.8 °F -34.6 °F -18.4 °F 84% 30.31 in 10.0 mi NNE 10.4 mph - N/A   Clear
6:56 AM -14.8 °F -37.5 °F -18.4 °F 84% 30.31 in 10.0 mi North 13.8 mph 17.3 mph N/A   Clear
7:16 AM -14.8 °F -37.5 °F -18.4 °F 84% 30.31 in 10.0 mi North 13.8 mph - N/A   Clear
7:36 AM -14.8 °F -35.6 °F -18.4 °F 84% 30.31 in 10.0 mi NNE 11.5 mph 19.6 mph N/A   Clear
7:56 AM -13.0 °F -35.2 °F -18.4 °F 77% 30.32 in 10.0 mi North 13.8 mph - N/A   Clear
8:16 AM -13.0 °F -31.3 °F -16.6 °F 84% 30.33 in 10.0 mi North 9.2 mph - N/A   Clear
8:36 AM -13.0 °F -33.4 °F -16.6 °F 84% 30.33 in 10.0 mi North 11.5 mph - N/A   Partly Cloudy
8:56 AM -13.0 °F -32.4 °F -18.4 °F 77% 30.34 in 10.0 mi North 10.4 mph 17.3 mph N/A   Partly Cloudy
9:16 AM -13.0 °F -33.4 °F -16.6 °F 84% 30.34 in 10.0 mi North 11.5 mph 17.3 mph N/A   Partly Cloudy
9:36 AM -13.0 °F -31.3 °F -16.6 °F 84% 30.35 in 10.0 mi North 9.2 mph 16.1 mph N/A   Clear
9:56 AM -14.8 °F -32.2 °F -18.4 °F 84% 30.36 in 10.0 mi North 8.1 mph - N/A   Clear
10:16 AM -14.8 °F -29.1 °F -18.4 °F 84% 30.36 in 10.0 mi North 5.8 mph - N/A   Clear
10:36 AM -16.6 °F -26.8 °F -23.8 °F 70% 30.38 in 10.0 mi NNE 3.5 mph - N/A   Clear
10:56 AM -16.6 °F -37.9 °F -20.2 °F 84% 30.37 in 10.0 mi NNE 11.5 mph - N/A   Clear
11:16 AM -14.8 °F -36.6 °F -18.4 °F 84% 30.37 in 10.0 mi NNE 12.7 mph - N/A   Clear
11:36 AM -16.6 °F -29.3 °F -20.2 °F 84% 30.38 in 10.0 mi SSE 4.6 mph - N/A   Clear
11:56 AM -23.8 °F - -29.2 °F 76% 30.39 in 10.0 mi Calm Calm - N/A   Clear
12:16 PM -25.6 °F - -32.8 °F 69% 30.40 in 10.0 mi Calm Calm - N/A   Clear
12:36 PM -27.4 °F - -34.6 °F 69% 30.40 in 10.0 mi Calm Calm - N/A   Clear
12:56 PM -29.2 °F - -34.6 °F 75% 30.41 in 10.0 mi Calm Calm - N/A   Clear
1:16 PM -29.2 °F - -34.6 °F 75% 30.41 in 10.0 mi Calm Calm - N/A   Clear
1:36 PM -29.2 °F - -34.6 °F 75% 30.41 in 10.0 mi Calm Calm - N/A   Clear
1:56 PM -29.2 °F - -36.4 °F 68% 30.41 in 10.0 mi Calm Calm - N/A   Clear
2:16 PM -31.0 °F - -36.4 °F 75% 30.40 in 10.0 mi Calm Calm - N/A   Clear
2:36 PM -32.8 °F - -38.2 °F 75% 30.40 in 10.0 mi Calm Calm - N/A   Clear
2:56 PM -32.8 °F - -38.2 °F 75% 30.40 in 10.0 mi Calm Calm - N/A   Clear
3:16 PM -32.8 °F - -38.2 °F 75% 30.40 in 10.0 mi Calm Calm - N/A   Clear
3:36 PM -32.8 °F - -38.2 °F 75% 30.40 in 10.0 mi Calm Calm - N/A   Clear
3:56 PM -32.8 °F - -40.0 °F 68% 30.40 in 10.0 mi Calm Calm - N/A   Clear
4:16 PM -34.6 °F - -40.0 °F 75% 30.40 in 10.0 mi Calm Calm - N/A   Clear
4:36 PM -34.6 °F - -41.8 °F 68% 30.40 in 10.0 mi Calm Calm - N/A   Clear
4:56 PM -34.6 °F - -41.8 °F 68% 30.40 in 10.0 mi Calm Calm - N/A   Clear
5:16 PM -34.6 °F - -41.8 °F 68% 30.40 in 10.0 mi Calm Calm - N/A   Clear
5:36 PM -36.4 °F - -41.8 °F 75% 30.40 in 10.0 mi Calm Calm - N/A   Clear
5:56 PM -36.4 °F - -43.6 °F 67% 30.40 in 10.0 mi Calm Calm - N/A   Clear
6:16 PM -36.4 °F - -43.6 °F 67% 30.40 in 10.0 mi Calm Calm - N/A   Clear
6:36 PM -36.4 °F - -43.6 °F 67% 30.40 in 7.0 mi Calm Calm - N/A   Clear
6:56 PM -38.2 °F - -43.6 °F 74% 30.40 in 10.0 mi Calm Calm - N/A   Clear
7:16 PM -38.2 °F - -43.6 °F 74% 30.39 in 10.0 mi Calm Calm - N/A   Clear
7:36 PM -38.2 °F - -43.6 °F 74% 30.39 in 10.0 mi Calm Calm - N/A   Clear
7:56 PM -38.2 °F - -45.4 °F 67% 30.39 in 10.0 mi Calm Calm - N/A   Clear
8:16 PM -38.2 °F - -45.4 °F 67% 30.39 in 10.0 mi Calm Calm - N/A   Clear
8:36 PM -38.2 °F - -45.4 °F 67% 30.39 in 10.0 mi Calm Calm - N/A   Clear
8:56 PM -38.2 °F - -45.4 °F 67% 30.38 in 10.0 mi Calm Calm - N/A   Clear
9:16 PM -38.2 °F - -45.4 °F 67% 30.38 in 10.0 mi Calm Calm - N/A   Clear
9:36 PM -38.2 °F - -45.4 °F 67% 30.39 in 8.0 mi Calm Calm - N/A   Clear
9:56 PM -38.2 °F - -45.4 °F 67% 30.40 in 8.0 mi Calm Calm - N/A   Clear
10:16 PM -40.0 °F - -45.4 °F 74% 30.39 in 9.0 mi Calm Calm - N/A   Clear
10:36 PM -40.0 °F - -45.4 °F 74% 30.39 in 10.0 mi Calm Calm - N/A   Clear
10:56 PM -40.0 °F - -47.2 °F 67% 30.39 in 10.0 mi Calm Calm - N/A   Clear
11:16 PM -41.8 °F - -47.2 °F 74% 30.40 in 10.0 mi Calm Calm - N/A   Clear
11:36 PM -41.8 °F - -47.2 °F 74% 30.39 in 10.0 mi Calm Calm - N/A   Clear
11:56 PM -41.8 °F - -47.2 °F 74% 30.39 in 10.0 mi Calm Calm - N/A   Clear